Retour au catalogue

STARLINK-30552

ActifCommunicationsVLEO
NORAD 57999·PAYLOAD·🇺🇸 United States

Lancé Oct 5, 2023 depuis Cape Canaveral Space Force Station

Loading…

Prochains Passages (prochaines 24 heures)

TLE

FraisSource: CelesTrak SupGP

Époque: Sep 15, 2026, 03:01 UTC

1 57999C 23153J   26258.12618056 -.00016488  00000+0 -59702-3 0  2587
2 57999  43.0000  77.6238 0001612 273.4203  81.5759 15.27596840    15

Suivez STARLINK-30552 en temps réel avec AllMySat

Download on the App Store